Climatologie pour Saint-Brevin les Pins
Jour • Résumé pour mai 27, 2017 Système :  Métrique    Anglais   Mixte
« - 1 jour
+ 1 jour »
Jour Semaine Mois Année Personnalisé
  Maximum : Minimum : Moyenne :
Température sous abri : -17.8 °C -9.2 °C -6.8 °C
Point de rosée : -17.8 °C -9.7 °C -8.6 °C
Humidité : Humidity % 63 % 82 %
Vitesse du vent : 0 km/h 0 km/h 7.6 km/h
Rafale : 0 km/h - -
Direction :- - SSW
Pression : 0 hPa 34269.7 hPa -
Précipitations : 12.7 mm    
Historical Graphs
 
 
Tableau de données pour mai 27, 2017
Heure Tempé Pt rosée Pression Vent Vitesse Rafale Humidité Taux pluie (/hr) Soleil
-17.8 °C -17.8 °C 0 hPa Calm     Humidity % 0 mm SolarRadiationWatts/m^2 W/m2 Conditions
00:00 -7.9 °C -8.7 °C 34293.4 hPa SSW 18.2 km/h 38.8 km/h 92 % 0 mm 0 W/m2
00:10 -8 °C -8.8 °C 34293.4 hPa WSW 5.1 km/h 23.3 km/h 92 % 0 mm 0 W/m2
00:20 -8.1 °C -8.7 °C 34293.4 hPa WSW 12.9 km/h 28.5 km/h 93 % 0 mm 0 W/m2
00:25 -8.2 °C -8.8 °C 34293.4 hPa WNW 20.8 km/h 28.5 km/h 93 % 0 mm 0 W/m2
00:30 -8.2 °C -8.8 °C 34293.4 hPa WSW 18.2 km/h 28.5 km/h 93 % 0 mm 0 W/m2
00:35 -8.2 °C -8.8 °C 34279.9 hPa West 15.6 km/h 28.5 km/h 93 % 0 mm 0 W/m2
00:40 -8.2 °C -8.9 °C 34279.9 hPa WSW 7.7 km/h 28.5 km/h 93 % 0 mm 0 W/m2
00:45 -8.2 °C -8.9 °C 34279.9 hPa Calm   20.8 km/h 93 % 0 mm 0 W/m2
00:50 -8.2 °C -8.8 °C 34269.7 hPa WSW 2.6 km/h 15.6 km/h 93 % 0 mm 0 W/m2
00:55 -8.2 °C -8.8 °C 34279.9 hPa SSW 7.7 km/h 15.6 km/h 93 % 0 mm 0 W/m2
01:00 -8.2 °C -8.8 °C 34293.4 hPa WSW 10.3 km/h 18.2 km/h 93 % 0 mm 0 W/m2
01:05 -8.2 °C -8.8 °C 34279.9 hPa SW 10.3 km/h 23.3 km/h 93 % 0 mm 0 W/m2
01:10 -8.2 °C -8.8 °C 34279.9 hPa SW 10.3 km/h 23.3 km/h 93 % 0 mm 0 W/m2
01:15 -8.2 °C -8.8 °C 34279.9 hPa SSW 15.6 km/h 18.2 km/h 93 % 0 mm 0 W/m2
01:20 -8.2 °C -8.8 °C 34293.4 hPa South 7.7 km/h 18.2 km/h 93 % 0 mm 0 W/m2
01:25 -8.1 °C -8.7 °C 34279.9 hPa Calm   18.2 km/h 94 % 0 mm 0 W/m2
01:30 -8.1 °C -8.7 °C 34293.4 hPa SSW 7.7 km/h 20.8 km/h 94 % 0 mm 0 W/m2
01:35 -8.1 °C -8.7 °C 34303.6 hPa SSW 2.6 km/h 20.8 km/h 93 % 0 mm 0 W/m2
01:40 -8.1 °C -8.7 °C 34293.4 hPa SSW 7.7 km/h 15.6 km/h 93 % 0 mm 0 W/m2
01:45 -8.1 °C -8.7 °C 34303.6 hPa SSW 10.3 km/h 20.8 km/h 93 % 0 mm 0 W/m2
01:50 -8 °C -8.7 °C 34313.7 hPa WSW 5.1 km/h 31.1 km/h 93 % 0 mm 0 W/m2
01:55 -8 °C -8.6 °C 34313.7 hPa SW 5.1 km/h 31.1 km/h 93 % 0 mm 0 W/m2
02:00 -8 °C -8.6 °C 34303.6 hPa SW 2.6 km/h 12.9 km/h 93 % 7.62 mm 0 W/m2
02:05 -8 °C -8.7 °C 34313.7 hPa SW 7.7 km/h 12.9 km/h 93 % 7.62 mm 0 W/m2
02:10 -8 °C -8.7 °C 34303.6 hPa West 7.7 km/h 15.6 km/h 93 % 7.62 mm 0 W/m2
02:15 -8.1 °C -8.7 °C 34303.6 hPa WSW 15.6 km/h 28.5 km/h 93 % 7.62 mm 0 W/m2
02:20 -8.2 °C -8.8 °C 34293.4 hPa WNW 7.7 km/h 33.6 km/h 93 % 12.7 mm 0 W/m2
02:25 -8.2 °C -8.8 °C 34303.6 hPa West 15.6 km/h 33.6 km/h 93 % 12.7 mm 0 W/m2
02:30 -8.2 °C -8.8 °C 34303.6 hPa WSW 18.2 km/h 28.5 km/h 94 % 12.7 mm 0 W/m2
02:35 -8.2 °C -8.8 °C 34303.6 hPa West 12.9 km/h 25.9 km/h 94 % 12.7 mm 0 W/m2
02:40 -8.2 °C -8.8 °C 34303.6 hPa SW 25.9 km/h 31.1 km/h 94 % 12.7 mm 0 W/m2
02:45 -8.3 °C -8.8 °C 34293.4 hPa WSW 18.2 km/h 31.1 km/h 94 % 12.7 mm 0 W/m2
02:50 -8.3 °C -8.9 °C 34303.6 hPa West 28.5 km/h 31.1 km/h 94 % 12.7 mm 0 W/m2
02:55 -8.4 °C -8.8 °C 34303.6 hPa West 20.8 km/h 33.6 km/h 95 % 12.7 mm 0 W/m2
03:00 -8.4 °C -8.8 °C 34303.6 hPa WSW 23.3 km/h 33.6 km/h 95 % 7.62 mm 0 W/m2
03:05 -8.4 °C -8.9 °C 34303.6 hPa WSW 15.6 km/h 33.6 km/h 95 % 7.62 mm 0 W/m2
03:10 -8.5 °C -8.9 °C 34303.6 hPa SW 2.6 km/h 33.6 km/h 95 % 7.62 mm 0 W/m2
03:15 -8.6 °C -9 °C 34303.6 hPa WSW 12.9 km/h 41.4 km/h 95 % 7.62 mm 0 W/m2
03:20 -8.6 °C -9.1 °C 34303.6 hPa WSW 15.6 km/h 46.7 km/h 95 % 0 mm 0 W/m2
03:25 -8.7 °C -9.1 °C 34313.7 hPa West 7.7 km/h 46.7 km/h 95 % 0 mm 0 W/m2
03:30 -8.7 °C -9.1 °C 34313.7 hPa WSW 15.6 km/h 44.1 km/h 95 % 0 mm 0 W/m2
03:35 -8.7 °C -9.2 °C 34313.7 hPa West 15.6 km/h 44.1 km/h 95 % 0 mm 0 W/m2
03:40 -8.7 °C -9.2 °C 34313.7 hPa WNW 20.8 km/h 36.2 km/h 95 % 0 mm 0 W/m2
03:45 -8.7 °C -9.2 °C 34313.7 hPa West 18.2 km/h 41.4 km/h 95 % 0 mm 0 W/m2
03:50 -8.7 °C -9.2 °C 34303.6 hPa West 10.3 km/h 41.4 km/h 95 % 0 mm 0 W/m2
03:55 -8.7 °C -9.2 °C 34313.7 hPa West 5.1 km/h 36.2 km/h 95 % 0 mm 0 W/m2
04:00 -8.8 °C -9.2 °C 34313.7 hPa WNW 7.7 km/h 36.2 km/h 95 % 0 mm 0 W/m2
04:05 -8.8 °C -9.2 °C 34313.7 hPa West 12.9 km/h 33.6 km/h 95 % 0 mm 0 W/m2
04:10 -8.8 °C -9.2 °C 34313.7 hPa West 10.3 km/h 36.2 km/h 95 % 0 mm 0 W/m2
04:15 -8.8 °C -9.2 °C 34313.7 hPa NNW 12.9 km/h 36.2 km/h 95 % 0 mm 0 W/m2
04:20 -8.8 °C -9.2 °C 34313.7 hPa WNW 15.6 km/h 33.6 km/h 95 % 0 mm 0 W/m2
04:25 -8.8 °C -9.2 °C 34313.7 hPa West 12.9 km/h 33.6 km/h 95 % 0 mm 0 W/m2
04:30 -8.7 °C -9.2 °C 34313.7 hPa WNW 5.1 km/h 23.3 km/h 95 % 0 mm 0 W/m2
04:35 -8.8 °C -9.2 °C 34313.7 hPa NW 10.3 km/h 28.5 km/h 95 % 0 mm 0 W/m2
04:40 -8.8 °C -9.2 °C 34313.7 hPa WNW 23.3 km/h 36.2 km/h 95 % 0 mm 0 W/m2
04:45 -8.8 °C -9.3 °C 34313.7 hPa WNW 10.3 km/h 36.2 km/h 95 % 0 mm 0 W/m2
04:50 -8.8 °C -9.3 °C 34313.7 hPa WNW 7.7 km/h 28.5 km/h 95 % 0 mm 0 W/m2
04:55 -8.8 °C -9.4 °C 34313.7 hPa WNW 10.3 km/h 28.5 km/h 94 % 0 mm 0 W/m2
05:00 -8.9 °C -9.3 °C 34313.7 hPa WNW 5.1 km/h 28.5 km/h 95 % 0 mm 0 W/m2
05:05 -8.9 °C -9.4 °C 34313.7 hPa West 2.6 km/h 20.8 km/h 94 % 0 mm 0 W/m2
05:10 -8.9 °C -9.5 °C 34313.7 hPa West 10.3 km/h 15.6 km/h 94 % 0 mm 0 W/m2
05:20 -9 °C -9.4 °C 34313.7 hPa Calm   12.9 km/h 95 % 0 mm 0 W/m2
05:25 -9 °C -9.4 °C 34313.7 hPa WNW 2.6 km/h 15.6 km/h 95 % 0 mm 0 W/m2
05:30 -9 °C -9.4 °C 34313.7 hPa Calm   15.6 km/h 95 % 0 mm 0 W/m2
05:35 -9.1 °C -9.5 °C 34313.7 hPa WNW 7.7 km/h 10.3 km/h 95 % 0 mm 0 W/m2
05:40 -9.1 °C -9.6 °C 34313.7 hPa WNW 2.6 km/h 10.3 km/h 95 % 0 mm 0 W/m2
05:45 -9.1 °C -9.6 °C 34313.7 hPa Calm   10.3 km/h 95 % 0 mm 0 W/m2
05:50 -9.2 °C -9.7 °C 34327.3 hPa Calm   10.3 km/h 95 % 0 mm 0 W/m2
05:55 -9.2 °C -9.6 °C 34327.3 hPa WNW 2.6 km/h 7.7 km/h 96 % 0 mm 0 W/m2
06:00 -9.1 °C -9.5 °C 34327.3 hPa WNW 2.6 km/h 12.9 km/h 96 % 0 mm 0 W/m2
06:05 -9.1 °C -9.4 °C 34327.3 hPa NW 5.1 km/h 15.6 km/h 96 % 0 mm 0 W/m2
06:10 -9.1 °C -9.4 °C 34327.3 hPa WNW 10.3 km/h 18.2 km/h 96 % 0 mm 0 W/m2
06:15 -9.1 °C -9.4 °C 34327.3 hPa West 2.6 km/h 18.2 km/h 96 % 0 mm 0 W/m2
06:20 -9 °C -9.4 °C 34327.3 hPa WNW 12.9 km/h 20.8 km/h 96 % 0 mm 0 W/m2
06:25 -9 °C -9.4 °C 34327.3 hPa WNW 10.3 km/h 23.3 km/h 96 % 0 mm 0 W/m2
06:30 -9 °C -9.3 °C 34327.3 hPa NW 7.7 km/h 23.3 km/h 96 % 0 mm 0 W/m2
06:35 -9.1 °C -9.5 °C 34337.4 hPa WNW 15.6 km/h 23.3 km/h 95 % 0 mm 7 W/m2
06:40 -9.2 °C -9.7 °C 34337.4 hPa NW 15.6 km/h 23.3 km/h 95 % 0 mm 14 W/m2
06:45 -9.2 °C -9.7 °C 34337.4 hPa WNW 5.1 km/h 23.3 km/h 95 % 0 mm 16 W/m2
06:50 -9.2 °C -9.7 °C 34337.4 hPa WNW 12.9 km/h 23.3 km/h 95 % 0 mm 16 W/m2
06:55 -9.2 °C -9.7 °C 34337.4 hPa WNW 18.2 km/h 23.3 km/h 95 % 0 mm 18 W/m2
07:00 -9.2 °C -9.7 °C 34337.4 hPa North 12.9 km/h 23.3 km/h 95 % 0 mm 26 W/m2
07:05 -9.2 °C -9.6 °C 34337.4 hPa WNW 12.9 km/h 18.2 km/h 95 % 0 mm 30 W/m2
07:10 -9.1 °C -9.6 °C 34337.4 hPa WNW 7.7 km/h 18.2 km/h 95 % 0 mm 28 W/m2
07:15 -9.1 °C -9.6 °C 34347.6 hPa NW 5.1 km/h 23.3 km/h 95 % 0 mm 39 W/m2
07:20 -9.1 °C -9.5 °C 34347.6 hPa Calm   23.3 km/h 95 % 0 mm 49 W/m2
07:25 -9 °C -9.4 °C 34347.6 hPa West 7.7 km/h 15.6 km/h 95 % 0 mm 51 W/m2
07:30 -8.9 °C -9.4 °C 34347.6 hPa WNW 7.7 km/h 12.9 km/h 95 % 0 mm 62 W/m2
07:35 -8.9 °C -9.4 °C 34361.1 hPa Calm   15.6 km/h 94 % 0 mm 91 W/m2
07:40 -8.9 °C -9.4 °C 34361.1 hPa WNW 5.1 km/h 15.6 km/h 94 % 0 mm 62 W/m2
07:45 -8.8 °C -9.4 °C 34361.1 hPa WNW 2.6 km/h 7.7 km/h 94 % 0 mm 88 W/m2
07:50 -8.8 °C -9.3 °C 34361.1 hPa WNW 5.1 km/h 7.7 km/h 94 % 0 mm 127 W/m2
07:55 -8.7 °C -9.2 °C 34371.3 hPa WNW 2.6 km/h 7.7 km/h 94 % 0 mm 148 W/m2
08:00 -8.6 °C -9.2 °C 34371.3 hPa WNW 7.7 km/h 12.9 km/h 93 % 0 mm 123 W/m2
08:05 -8.5 °C -9.2 °C 34371.3 hPa WNW 10.3 km/h 12.9 km/h 93 % 0 mm 83 W/m2
08:10 -8.7 °C -9.4 °C 34384.8 hPa West 5.1 km/h 12.9 km/h 92 % 0 mm 121 W/m2
08:15 -8.7 °C -9.4 °C 34384.8 hPa West 2.6 km/h 12.9 km/h 92 % 0 mm 137 W/m2
08:20 -8.5 °C -9.3 °C 34384.8 hPa Calm   7.7 km/h 91 % 0 mm 151 W/m2
08:25 -8.5 °C -9.3 °C 34384.8 hPa Calm   7.7 km/h 91 % 0 mm 197 W/m2
08:30 -8.4 °C -9.3 °C 34395 hPa West 2.6 km/h 7.7 km/h 90 % 0 mm 153 W/m2
08:35 -8.4 °C -9.3 °C 34384.8 hPa West 5.1 km/h 7.7 km/h 90 % 0 mm 209 W/m2
08:40 -8.3 °C -9.3 °C 34395 hPa Calm   7.7 km/h 90 % 0 mm 169 W/m2
08:45 -8.3 °C -9.4 °C 34395 hPa Calm   7.7 km/h 88 % 0 mm 123 W/m2
08:50 -8.3 °C -9.4 °C 34395 hPa Calm   7.7 km/h 88 % 0 mm 107 W/m2
08:55 -8.3 °C -9.4 °C 34395 hPa WSW 5.1 km/h 10.3 km/h 88 % 0 mm 86 W/m2
09:00 -8.3 °C -9.4 °C 34395 hPa WSW 5.1 km/h 10.3 km/h 88 % 0 mm 109 W/m2
09:05 -8.3 °C -9.4 °C 34405.1 hPa SSW 5.1 km/h 10.3 km/h 88 % 0 mm 83 W/m2
09:10 -8.3 °C -9.4 °C 34405.1 hPa SSW 2.6 km/h 10.3 km/h 88 % 0 mm 79 W/m2
09:15 -8.3 °C -9.4 °C 34405.1 hPa SSW 10.3 km/h 10.3 km/h 88 % 0 mm 90 W/m2
09:20 -8.3 °C -9.4 °C 34405.1 hPa SSW 7.7 km/h 10.3 km/h 88 % 0 mm 113 W/m2
09:25 -8.3 °C -9.4 °C 34405.1 hPa SSW 10.3 km/h 12.9 km/h 88 % 0 mm 118 W/m2
09:30 -8.2 °C -9.4 °C 34405.1 hPa SSW 5.1 km/h 12.9 km/h 87 % 0 mm 114 W/m2
09:35 -8.2 °C -9.4 °C 34418.7 hPa SSW 7.7 km/h 12.9 km/h 87 % 0 mm 127 W/m2
09:40 -8.2 °C -9.4 °C 34418.7 hPa Calm   12.9 km/h 87 % 0 mm 121 W/m2
09:45 -8.1 °C -9.4 °C 34418.7 hPa SSW 7.7 km/h 12.9 km/h 86 % 0 mm 137 W/m2
09:50 -8.2 °C -9.4 °C 34418.7 hPa South 5.1 km/h 15.6 km/h 86 % 0 mm 160 W/m2
09:55 -8.1 °C -9.3 °C 34428.8 hPa SSE 12.9 km/h 15.6 km/h 87 % 0 mm 171 W/m2
10:00 -8 °C -9.3 °C 34428.8 hPa SSE 10.3 km/h 12.9 km/h 86 % 0 mm 178 W/m2
10:05 -7.9 °C -9.3 °C 34428.8 hPa SSE 7.7 km/h 15.6 km/h 86 % 0 mm 162 W/m2
10:10 -8 °C -9.3 °C 34428.8 hPa SSE 10.3 km/h 15.6 km/h 86 % 0 mm 186 W/m2
10:15 -7.9 °C -9.3 °C 34428.8 hPa South 10.3 km/h 15.6 km/h 85 % 0 mm 192 W/m2
10:20 -7.9 °C -9.2 °C 34428.8 hPa SSE 5.1 km/h 15.6 km/h 86 % 0 mm 192 W/m2
10:25 -7.9 °C -9.3 °C 34428.8 hPa Calm   10.3 km/h 85 % 0 mm 204 W/m2
10:30 -7.8 °C -9.2 °C 34428.8 hPa South 5.1 km/h 15.6 km/h 85 % 0 mm 220 W/m2
10:35 -7.8 °C -9.2 °C 34428.8 hPa South 10.3 km/h 15.6 km/h 85 % 0 mm 225 W/m2
10:40 -7.7 °C -9.1 °C 34428.8 hPa South 2.6 km/h 12.9 km/h 85 % 0 mm 255 W/m2
10:45 -7.6 °C -9.2 °C 34428.8 hPa SW 7.7 km/h 10.3 km/h 83 % 0 mm 387 W/m2
10:50 -7.3 °C -8.8 °C 34428.8 hPa SW 7.7 km/h 10.3 km/h 84 % 0 mm 874 W/m2
10:55 -6.9 °C -8.5 °C 34428.8 hPa WSW 10.3 km/h 15.6 km/h 84 % 0 mm 773 W/m2
11:00 -6.8 °C -8.8 °C 34428.8 hPa WSW 7.7 km/h 18.2 km/h 80 % 0 mm 392 W/m2
11:05 -7.2 °C -9.1 °C 34428.8 hPa South 2.6 km/h 18.2 km/h 81 % 0 mm 364 W/m2
11:10 -7.2 °C -8.9 °C 34428.8 hPa West 2.6 km/h 18.2 km/h 82 % 0 mm 380 W/m2
11:15 -6.9 °C -8.6 °C 34428.8 hPa West 12.9 km/h 23.3 km/h 83 % 0 mm 747 W/m2
11:20 -6.6 °C -8.3 °C 34428.8 hPa SW 12.9 km/h 23.3 km/h 82 % 0 mm 810 W/m2
11:25 -7.1 °C -9.1 °C 34442.4 hPa WNW 12.9 km/h 20.8 km/h 80 % 0 mm 302 W/m2
11:30 -7.2 °C -8.9 °C 34428.8 hPa WSW 5.1 km/h 18.2 km/h 82 % 0 mm 404 W/m2
11:35 -7.3 °C -9 °C 34428.8 hPa WNW 12.9 km/h 20.8 km/h 82 % 0 mm 471 W/m2
11:40 -7.2 °C -9.1 °C 34428.8 hPa SW 7.7 km/h 20.8 km/h 81 % 0 mm 294 W/m2
11:45 -7.3 °C -9.1 °C 34428.8 hPa WNW 12.9 km/h 18.2 km/h 82 % 0 mm 538 W/m2
11:50 -7.1 °C -8.7 °C 34428.8 hPa West 10.3 km/h 18.2 km/h 83 % 0 mm 533 W/m2
11:55 -7 °C -8.7 °C 34428.8 hPa WSW 12.9 km/h 18.2 km/h 82 % 0 mm 638 W/m2
12:00 -6.6 °C -8.6 °C 34428.8 hPa SW 5.1 km/h 20.8 km/h 80 % 0 mm 844 W/m2
12:05 -6.6 °C -8.7 °C 34428.8 hPa Calm   20.8 km/h 78 % 0 mm 800 W/m2
12:10 -6.4 °C -8.6 °C 34428.8 hPa West 7.7 km/h 18.2 km/h 78 % 0 mm 819 W/m2
12:15 -6.5 °C -8.8 °C 34428.8 hPa West 5.1 km/h 23.3 km/h 77 % 0 mm 807 W/m2
12:20 -6.4 °C -8.7 °C 34442.4 hPa WSW 15.6 km/h 23.3 km/h 78 % 0 mm 819 W/m2
12:25 -6.3 °C -8.6 °C 34428.8 hPa WSW 10.3 km/h 20.8 km/h 78 % 0 mm 830 W/m2
12:30 -6.5 °C -8.9 °C 34428.8 hPa West 10.3 km/h 20.8 km/h 76 % 0 mm 874 W/m2
12:35 -6.3 °C -8.4 °C 34428.8 hPa NW 15.6 km/h 20.8 km/h 79 % 0 mm 928 W/m2
12:40 -6.3 °C -8.6 °C 34428.8 hPa NW 2.6 km/h 28.5 km/h 78 % 0 mm 837 W/m2
12:45 -6.3 °C -8.3 °C 34428.8 hPa West 5.1 km/h 28.5 km/h 80 % 0 mm 874 W/m2
12:55 -6.1 °C -8.8 °C 34428.8 hPa WNW 10.3 km/h 20.8 km/h 74 % 0 mm 826 W/m2
13:00 -6.3 °C -8.6 °C 34428.8 hPa West 12.9 km/h 20.8 km/h 78 % 0 mm 807 W/m2
13:05 -6.4 °C -8.8 °C 34428.8 hPa WNW 7.7 km/h 20.8 km/h 76 % 0 mm 816 W/m2
13:10 -6.3 °C -8.6 °C 34428.8 hPa WSW 2.6 km/h 20.8 km/h 77 % 0 mm 947 W/m2
13:15 -6.3 °C -8.8 °C 34428.8 hPa West 2.6 km/h 20.8 km/h 76 % 0 mm 860 W/m2
13:20 -6.2 °C -8.4 °C 34428.8 hPa WSW 5.1 km/h 20.8 km/h 77 % 0 mm 698 W/m2
13:25 -6.2 °C -8.2 °C 34428.8 hPa WSW 5.1 km/h 20.8 km/h 79 % 0 mm 756 W/m2
13:30 -6.2 °C -8.6 °C 34418.7 hPa West 2.6 km/h 18.2 km/h 76 % 0 mm 661 W/m2
13:35 -6.1 °C -8.6 °C 34418.7 hPa WNW 10.3 km/h 15.6 km/h 75 % 0 mm 689 W/m2
13:40 -6.1 °C -8.9 °C 34418.7 hPa WNW 7.7 km/h 15.6 km/h 73 % 0 mm 679 W/m2
13:45 -6 °C -8.7 °C 34418.7 hPa WNW 5.1 km/h 18.2 km/h 74 % 0 mm 856 W/m2
13:50 -6.2 °C -8.8 °C 34418.7 hPa West 5.1 km/h 18.2 km/h 74 % 0 mm 802 W/m2
13:55 -5.7 °C -8.4 °C 34418.7 hPa Calm   12.9 km/h 74 % 0 mm 650 W/m2
14:05 -5.6 °C -8.2 °C 34405.1 hPa Calm   12.9 km/h 75 % 0 mm 724 W/m2
14:10 -5.6 °C -8.6 °C 34405.1 hPa WNW 15.6 km/h 15.6 km/h 71 % 0 mm 712 W/m2
14:15 -5.6 °C -8.2 °C 34405.1 hPa West 7.7 km/h 15.6 km/h 75 % 0 mm 647 W/m2
14:25 -5.4 °C -8.2 °C 34405.1 hPa WNW 5.1 km/h 15.6 km/h 73 % 0 mm 670 W/m2
14:30 -5.6 °C -8.1 °C 34405.1 hPa NW 5.1 km/h 15.6 km/h 76 % 0 mm 642 W/m2
14:35 -5.6 °C -8.2 °C 34405.1 hPa Calm   15.6 km/h 75 % 0 mm 612 W/m2
14:40 -5.6 °C -7.9 °C 34405.1 hPa Calm   12.9 km/h 77 % 0 mm 606 W/m2
14:45 -5.5 °C -8.2 °C 34405.1 hPa WNW 2.6 km/h 10.3 km/h 74 % 0 mm 628 W/m2
14:50 -5.5 °C -8.1 °C 34405.1 hPa WNW 10.3 km/h 20.8 km/h 75 % 0 mm 642 W/m2
14:55 -5.7 °C -8.3 °C 34405.1 hPa West 12.9 km/h 20.8 km/h 75 % 0 mm 629 W/m2
15:00 -5.9 °C -8.2 °C 34395 hPa West 10.3 km/h 20.8 km/h 77 % 0 mm 670 W/m2
15:05 -5.4 °C -7.9 °C 34405.1 hPa West 7.7 km/h 18.2 km/h 76 % 0 mm 612 W/m2
15:10 -5.5 °C -8.1 °C 34395 hPa WSW 2.6 km/h 15.6 km/h 75 % 0 mm 494 W/m2
15:15 -5.9 °C -8.3 °C 34395 hPa West 2.6 km/h 18.2 km/h 76 % 0 mm 499 W/m2
15:20 -5.9 °C -8.3 °C 34395 hPa WNW 5.1 km/h 18.2 km/h 76 % 0 mm 385 W/m2
15:25 -5.8 °C -8.1 °C 34395 hPa WNW 2.6 km/h 10.3 km/h 78 % 0 mm 396 W/m2
15:30 -5.7 °C -7.9 °C 34395 hPa Calm   7.7 km/h 78 % 0 mm 545 W/m2
15:35 -5.4 °C -8.1 °C 34395 hPa NNW 2.6 km/h 10.3 km/h 74 % 0 mm 659 W/m2
15:40 -5.2 °C -7.7 °C 34395 hPa Calm   15.6 km/h 76 % 0 mm 940 W/m2
15:45 -4.9 °C -7.7 °C 34395 hPa WNW 12.9 km/h 18.2 km/h 73 % 0 mm 846 W/m2
15:50 -4.6 °C -7.7 °C 34395 hPa NW 7.7 km/h 18.2 km/h 71 % 0 mm 675 W/m2
15:55 -4.7 °C -7.4 °C 34384.8 hPa NW 15.6 km/h 18.2 km/h 74 % 0 mm 763 W/m2
16:00 -4.4 °C -7.4 °C 34384.8 hPa Calm   18.2 km/h 72 % 0 mm 823 W/m2
16:05 -4.4 °C -7.5 °C 34384.8 hPa NNW 7.7 km/h 18.2 km/h 71 % 0 mm 717 W/m2
16:10 -4 °C -7.1 °C 34384.8 hPa ENE 10.3 km/h 18.2 km/h 71 % 0 mm 657 W/m2
16:15 -4.4 °C -8.1 °C 34395 hPa Calm   12.9 km/h 67 % 0 mm 547 W/m2
16:20 -4.6 °C -7.8 °C 34395 hPa NW 5.1 km/h 12.9 km/h 70 % 0 mm 533 W/m2
16:25 -4.5 °C -7.3 °C 34395 hPa NW 18.2 km/h 18.2 km/h 73 % 0 mm 343 W/m2
16:30 -4.8 °C -7.6 °C 34395 hPa NW 7.7 km/h 23.3 km/h 74 % 0 mm 364 W/m2
16:35 -5.1 °C -7.7 °C 34395 hPa West 10.3 km/h 23.3 km/h 75 % 0 mm 490 W/m2
16:40 -5.1 °C -7.7 °C 34384.8 hPa Calm   18.2 km/h 74 % 0 mm 436 W/m2
16:45 -4.9 °C -7.6 °C 34384.8 hPa Calm   18.2 km/h 75 % 0 mm 457 W/m2
16:50 -4.8 °C -7.4 °C 34384.8 hPa NW 7.7 km/h 10.3 km/h 75 % 0 mm 448 W/m2
16:55 -4.8 °C -7.7 °C 34384.8 hPa NW 5.1 km/h 12.9 km/h 73 % 0 mm 427 W/m2
17:00 -4.7 °C -7.1 °C 34384.8 hPa WNW 5.1 km/h 12.9 km/h 77 % 0 mm 882 W/m2
17:05 -4 °C -6.9 °C 34371.3 hPa West 12.9 km/h 15.6 km/h 73 % 0 mm 842 W/m2
17:10 -3.8 °C -7.3 °C 34384.8 hPa WNW 7.7 km/h 20.8 km/h 68 % 0 mm 496 W/m2
17:15 -3.9 °C -7 °C 34384.8 hPa North 2.6 km/h 20.8 km/h 71 % 0 mm 438 W/m2
17:20 -3.8 °C -7 °C 34384.8 hPa WNW 2.6 km/h 18.2 km/h 70 % 0 mm 606 W/m2
17:25 -3.9 °C -7.4 °C 34371.3 hPa Calm   15.6 km/h 68 % 0 mm 520 W/m2
17:30 -3.8 °C -7.3 °C 34371.3 hPa ENE 12.9 km/h 18.2 km/h 68 % 0 mm 439 W/m2
17:35 -3.8 °C -7.5 °C 34371.3 hPa NNE 5.1 km/h 18.2 km/h 67 % 0 mm 552 W/m2
17:40 -3.8 °C -7.7 °C 34371.3 hPa North 5.1 km/h 20.8 km/h 65 % 0 mm 457 W/m2
17:45 -3.7 °C -7.7 °C 34371.3 hPa North 7.7 km/h 20.8 km/h 65 % 0 mm 543 W/m2
17:50 -3.8 °C -7.7 °C 34371.3 hPa North 7.7 km/h 25.9 km/h 65 % 0 mm 552 W/m2
17:55 -3.6 °C -7 °C 34371.3 hPa Calm   25.9 km/h 69 % 0 mm 431 W/m2
18:00 -3.6 °C -7.6 °C 34371.3 hPa NNE 2.6 km/h 18.2 km/h 65 % 0 mm 531 W/m2
18:05 -3.7 °C -7.9 °C 34361.1 hPa NNE 2.6 km/h 18.2 km/h 63 % 0 mm 519 W/m2
18:10 -3.5 °C -7.2 °C 34361.1 hPa NW 12.9 km/h 18.2 km/h 67 % 0 mm 413 W/m2
18:15 -3.6 °C -7.8 °C 34361.1 hPa NE 7.7 km/h 18.2 km/h 63 % 0 mm 434 W/m2
18:20 -3.6 °C -7.6 °C 34361.1 hPa NE 10.3 km/h 18.2 km/h 65 % 0 mm 429 W/m2
18:25 -3.7 °C -7.7 °C 34347.6 hPa ENE 20.8 km/h 20.8 km/h 64 % 0 mm 443 W/m2
18:30 -3.7 °C -7.8 °C 34361.1 hPa NE 18.2 km/h 23.3 km/h 64 % 0 mm 399 W/m2
18:35 -3.7 °C -7.9 °C 34361.1 hPa Calm   23.3 km/h 63 % 0 mm 387 W/m2
18:40 -3.6 °C -7.4 °C 34361.1 hPa Calm   18.2 km/h 66 % 0 mm 385 W/m2
18:45 -3.6 °C -7.4 °C 34347.6 hPa NE 7.7 km/h 18.2 km/h 66 % 0 mm 357 W/m2
18:50 -3.7 °C -7.6 °C 34347.6 hPa NNE 10.3 km/h 20.8 km/h 65 % 0 mm 336 W/m2
18:55 -3.8 °C -7.4 °C 34347.6 hPa NNE 10.3 km/h 25.9 km/h 67 % 0 mm 329 W/m2
19:00 -3.7 °C -7.3 °C 34347.6 hPa ENE 5.1 km/h 25.9 km/h 67 % 0 mm 385 W/m2
19:05 -3.6 °C -7.6 °C 34347.6 hPa North 10.3 km/h 23.3 km/h 65 % 0 mm 338 W/m2
19:10 -3.7 °C -7.8 °C 34347.6 hPa North 18.2 km/h 23.3 km/h 64 % 0 mm 127 W/m2
19:15 -4.1 °C -7.8 °C 34347.6 hPa Calm   23.3 km/h 66 % 0 mm 125 W/m2
19:20 -4.2 °C -7.7 °C 34347.6 hPa East 20.8 km/h 23.3 km/h 68 % 0 mm 113 W/m2
19:25 -4.3 °C -7.5 °C 34347.6 hPa NE 15.6 km/h 23.3 km/h 70 % 0 mm 137 W/m2
19:30 -4.2 °C -7.7 °C 34347.6 hPa Calm   20.8 km/h 68 % 0 mm 197 W/m2
19:35 -4.1 °C -7.3 °C 34347.6 hPa NE 10.3 km/h 23.3 km/h 70 % 0 mm 190 W/m2
19:40 -4 °C -7.5 °C 34347.6 hPa North 7.7 km/h 23.3 km/h 68 % 0 mm 232 W/m2
19:45 -4 °C -7.5 °C 34347.6 hPa NNE 10.3 km/h 20.8 km/h 68 % 0 mm 158 W/m2
19:50 -4.1 °C -7.7 °C 34347.6 hPa North 10.3 km/h 28.5 km/h 67 % 0 mm 125 W/m2
19:55 -4.3 °C -7.5 °C 34347.6 hPa NNW 12.9 km/h 28.5 km/h 70 % 0 mm 111 W/m2
20:00 -4.4 °C -7.8 °C 34347.6 hPa NNE 5.1 km/h 18.2 km/h 69 % 0 mm 151 W/m2
20:05 -4.3 °C -7.4 °C 34347.6 hPa North 5.1 km/h 18.2 km/h 71 % 0 mm 134 W/m2
20:10 -4.3 °C -7.7 °C 34347.6 hPa NE 18.2 km/h 23.3 km/h 69 % 0 mm 134 W/m2
20:15 -4.4 °C -7.9 °C 34347.6 hPa North 5.1 km/h 23.3 km/h 68 % 0 mm 102 W/m2
20:20 -4.5 °C -8 °C 34347.6 hPa NNE 10.3 km/h 23.3 km/h 68 % 0 mm 125 W/m2
20:25 -4.5 °C -7.9 °C 34347.6 hPa NE 2.6 km/h 23.3 km/h 68 % 0 mm 97 W/m2
20:30 -4.5 °C -7.9 °C 34337.4 hPa NNE 10.3 km/h 23.3 km/h 68 % 0 mm 81 W/m2
20:35 -4.6 °C -7.8 °C 34347.6 hPa Calm   20.8 km/h 70 % 0 mm 67 W/m2
20:40 -4.7 °C -7.8 °C 34347.6 hPa NE 10.3 km/h 20.8 km/h 71 % 0 mm 54 W/m2
20:45 -4.7 °C -7.8 °C 34347.6 hPa North 10.3 km/h 18.2 km/h 71 % 0 mm 44 W/m2
20:50 -4.7 °C -7.8 °C 34347.6 hPa North 5.1 km/h 18.2 km/h 71 % 0 mm 40 W/m2
20:55 -4.8 °C -7.8 °C 34347.6 hPa NNE 12.9 km/h 20.8 km/h 71 % 0 mm 40 W/m2
21:00 -4.8 °C -7.8 °C 34347.6 hPa NNE 5.1 km/h 20.8 km/h 72 % 0 mm 33 W/m2
21:05 -4.9 °C -7.9 °C 34347.6 hPa NNE 5.1 km/h 20.8 km/h 72 % 0 mm 28 W/m2
21:10 -5 °C -7.8 °C 34347.6 hPa North 7.7 km/h 15.6 km/h 73 % 0 mm 26 W/m2
21:15 -5.1 °C -7.9 °C 34347.6 hPa NNE 7.7 km/h 15.6 km/h 73 % 0 mm 23 W/m2
21:20 -5.2 °C -8.1 °C 34347.6 hPa NNE 10.3 km/h 18.2 km/h 73 % 0 mm 19 W/m2
21:25 -5.3 °C -8 °C 34347.6 hPa Calm   18.2 km/h 74 % 0 mm 18 W/m2
21:30 -5.4 °C -8 °C 34347.6 hPa NE 10.3 km/h 18.2 km/h 75 % 0 mm 14 W/m2
21:35 -5.5 °C -8.1 °C 34361.1 hPa NNE 10.3 km/h 15.6 km/h 75 % 0 mm 9 W/m2
21:40 -5.6 °C -8.1 °C 34361.1 hPa Calm   15.6 km/h 76 % 0 mm 7 W/m2
21:45 -5.8 °C -8.1 °C 34361.1 hPa NNE 10.3 km/h 15.6 km/h 77 % 0 mm 5 W/m2
21:50 -5.9 °C -8.2 °C 34361.1 hPa NNW 5.1 km/h 12.9 km/h 78 % 0 mm 0 W/m2
21:55 -5.9 °C -8.3 °C 34361.1 hPa NNE 7.7 km/h 12.9 km/h 77 % 0 mm 0 W/m2
22:00 -6 °C -8.2 °C 34361.1 hPa North 5.1 km/h 10.3 km/h 78 % 0 mm 0 W/m2
22:05 -6.1 °C -8.3 °C 34361.1 hPa North 5.1 km/h 15.6 km/h 78 % 0 mm 0 W/m2
22:10 -6.2 °C -8.4 °C 34361.1 hPa Calm   15.6 km/h 77 % 0 mm 0 W/m2
22:15 -6.3 °C -8.5 °C 34361.1 hPa North 5.1 km/h 18.2 km/h 78 % 0 mm 0 W/m2
22:20 -6.3 °C -8.6 °C 34361.1 hPa NNE 2.6 km/h 18.2 km/h 78 % 0 mm 0 W/m2
22:25 -6.5 °C -8.6 °C 34361.1 hPa NNE 5.1 km/h 15.6 km/h 79 % 0 mm 0 W/m2
22:30 -6.5 °C -8.6 °C 34371.3 hPa North 5.1 km/h 15.6 km/h 79 % 0 mm 0 W/m2
22:35 -6.5 °C -8.6 °C 34371.3 hPa NNE 5.1 km/h 12.9 km/h 79 % 0 mm 0 W/m2
22:40 -6.6 °C -8.7 °C 34371.3 hPa North 15.6 km/h 15.6 km/h 79 % 0 mm 0 W/m2
22:45 -6.7 °C -8.7 °C 34371.3 hPa North 5.1 km/h 15.6 km/h 80 % 0 mm 0 W/m2
22:50 -6.7 °C -8.7 °C 34371.3 hPa Calm   15.6 km/h 80 % 0 mm 0 W/m2
22:55 -6.7 °C -8.7 °C 34371.3 hPa NNE 5.1 km/h 12.9 km/h 80 % 0 mm 0 W/m2
23:00 -6.7 °C -8.7 °C 34371.3 hPa NE 5.1 km/h 12.9 km/h 80 % 0 mm 0 W/m2
23:05 -6.7 °C -8.7 °C 34371.3 hPa North 2.6 km/h 10.3 km/h 80 % 0 mm 0 W/m2
23:10 -6.7 °C -8.7 °C 34371.3 hPa Calm   10.3 km/h 80 % 0 mm 0 W/m2
23:15 -6.7 °C -8.7 °C 34371.3 hPa Calm   10.3 km/h 80 % 0 mm 0 W/m2
23:20 -6.8 °C -8.8 °C 34371.3 hPa Calm   10.3 km/h 80 % 0 mm 0 W/m2
23:25 -6.8 °C -8.7 °C 34371.3 hPa NE 2.6 km/h 15.6 km/h 81 % 0 mm 0 W/m2
23:30 -6.8 °C -8.8 °C 34371.3 hPa Calm   15.6 km/h 80 % 0 mm 0 W/m2
23:35 -6.8 °C -8.7 °C 34371.3 hPa ENE 5.1 km/h 12.9 km/h 80 % 0 mm 0 W/m2
23:40 -6.8 °C -8.8 °C 34371.3 hPa NE 5.1 km/h 12.9 km/h 80 % 0 mm 0 W/m2
23:45 -6.8 °C -8.7 °C 34371.3 hPa ENE 2.6 km/h 15.6 km/h 80 % 0 mm 0 W/m2
23:50 -6.7 °C -8.7 °C 34361.1 hPa ENE 2.6 km/h 15.6 km/h 80 % 0 mm 0 W/m2
23:55 -6.8 °C -8.7 °C 34361.1 hPa ENE 2.6 km/h 10.3 km/h 80 % 0 mm 0 W/m2
Avec l'autorisation de Weather Underground - 1.75 mb